Home > Weather > Mechelen > Past weeks

Flag for Belgium Past Weather in Mechelen, Belgium — Yesterday and Last 2 Weeks

Now
64 °F

Clear.


Feels Like: 64 °F
Forecast: 51 / 73 °F
Wind: 9 mph from West

Location: Brussels National Airport

Current Time: Aug 29, 2016 at 4:17:40 AM

Latest Report: Aug 29, 2016 at 3:20 AM


Visibility: 10 mi

Pressure: 30.04 "Hg

Humidity: 78%

Dew Point: 57 °F

Location of MechelenLocation

Past Weather in Mechelen — Graph

°F

Mechelen Temperature Yesterday

Maximum temperature yesterday: 75 °F (at 12:20 AM)
Minimum temperature yesterday: 63 °F (at 11:20 PM)
Average temperature yesterday: 71 °F

High & Low Weather Summary for the Past Weeks

 TemperatureHumidityPressure
High91 °F (Aug 25, 4:50 PM)100% (Aug 14, 2:20 AM)30.33 "Hg (Aug 14, 2:20 AM)
Low50 °F (Aug 16, 5:50 AM)33% (Aug 24, 6:20 PM)29.77 "Hg (Aug 19, 4:20 PM)
Average68 °F73%30.04 "Hg
* Reported Aug 14 2:20 AM — Aug 29 2:50 AM, Mechelen, Weather by CustomWeather, © 2016

Note: Actual official high and low records may vary slightly from our data, if they occured in-between our weather recording intervals... More about our weather records

Advertising

Mechelen Weather History for the Previous 24 Hours

Scroll right to see more
 ConditionsComfort  
Time TempWeatherWind HumidityBarometerVisibility
2:50 AM
Mon, Aug 29
64 °FClear.9 mph78%30.04 "Hg10 mi
2:20 AM64 °FPassing clouds.9 mph78%30.04 "HgN/A
1:50 AM64 °FClear.8 mph78%30.04 "Hg10 mi
1:20 AM64 °FClear.6 mph73%30.04 "Hg10 mi
12:50 AM63 °FClear.6 mph77%30.04 "Hg10 mi
12:20 AM63 °FClear.7 mph77%30.04 "Hg10 mi
11:50 PM
Sun, Aug 28
63 °FClear.6 mph77%30.04 "Hg10 mi
11:20 PM63 °FClear.6 mph77%30.04 "Hg10 mi
10:50 PM64 °FClear.6 mph73%30.04 "Hg10 mi
10:20 PM66 °FClear.8 mph68%30.04 "Hg10 mi
9:50 PM68 °FClear.9 mph64%30.04 "Hg10 mi
9:20 PM66 °FPassing clouds.7 mph68%30.01 "HgN/A
8:50 PM68 °FSunny.6 mph69%30.01 "Hg10 mi
8:20 PM70 °FPassing clouds.12 mph60%30.01 "HgN/A
7:50 PM70 °FPassing clouds.13 mph64%30.01 "HgN/A
7:20 PM72 °FPassing clouds.14 mph61%29.98 "HgN/A
6:50 PM73 °FPassing clouds.12 mph53%29.98 "HgN/A
6:20 PM73 °FPassing clouds.12 mph53%29.98 "HgN/A
5:50 PM73 °FPassing clouds.13 mph53%29.98 "HgN/A
5:20 PM73 °FPassing clouds.13 mph53%29.98 "HgN/A
4:50 PM75 °FPassing clouds.14 mph54%29.98 "HgN/A
4:20 PM75 °FScattered clouds.16 mph47%29.98 "HgN/A
3:50 PM73 °FScattered clouds.15 mph57%29.98 "HgN/A
3:20 PM75 °FPassing clouds.14 mph57%29.98 "HgN/A
2:50 PM73 °FPassing clouds.13 mph61%29.98 "HgN/A
2:20 PM75 °FPassing clouds.14 mph57%29.98 "HgN/A
1:50 PM75 °FPassing clouds.13 mph57%29.98 "HgN/A
1:20 PM73 °FPassing clouds.13 mph61%29.98 "HgN/A
12:50 PM75 °FPassing clouds.10 mph61%29.98 "HgN/A
12:20 PM73 °FPartly sunny.12 mph65%29.95 "HgN/A
11:50 AM73 °FScattered clouds.14 mph69%29.95 "HgN/A
11:20 AM72 °FPartly sunny.12 mph78%29.95 "HgN/A
10:50 AM73 °FScattered clouds.13 mph74%29.95 "HgN/A
10:20 AM73 °FPassing clouds.12 mph74%29.92 "HgN/A
9:50 AM73 °FPassing clouds.13 mph74%29.92 "HgN/A
9:20 AM73 °FSunny.14 mph74%29.92 "Hg10 mi
8:50 AM73 °FSunny.14 mph69%29.89 "Hg10 mi
8:20 AM73 °FSunny.10 mph69%29.89 "Hg10 mi
7:50 AM70 °FSunny.12 mph78%29.86 "Hg10 mi
7:20 AM70 °FClear.12 mph78%29.86 "Hg10 mi
6:50 AM70 °FClear.8 mph78%29.86 "Hg10 mi
6:20 AM70 °FClear.7 mph78%29.86 "Hg10 mi
5:50 AM68 °FClear.6 mph88%29.89 "Hg10 mi
5:20 AM68 °FClear.6 mph88%29.89 "Hg10 mi
4:50 AM66 °FClear.2 mph94%29.89 "Hg10 mi
4:20 AM68 °FClear.5 mph88%29.89 "Hg10 mi
Weather by CustomWeather, © 2016

See weather overviewHow to use our weather pages